Year,Month,Day,Hour,Minute,Value (Times are PST for temperature in C)
2016,08,08,00,00,12.30
2016,08,08,00,01,12.20
2016,08,08,00,02,12.20
2016,08,08,00,03,12.20
2016,08,08,00,04,12.20
2016,08,08,00,05,12.20
2016,08,08,00,06,12.20
2016,08,08,00,07,12.20
2016,08,08,00,08,12.20
2016,08,08,00,09,12.10
2016,08,08,00,10,12.10
2016,08,08,00,11,12.10
2016,08,08,00,12,12.10
2016,08,08,00,13,12.10
2016,08,08,00,14,12.10
2016,08,08,00,15,12.00
2016,08,08,00,16,12.00
2016,08,08,00,17,12.00
2016,08,08,00,18,12.00
2016,08,08,00,19,12.00
2016,08,08,00,20,11.90
2016,08,08,00,21,11.90
2016,08,08,00,22,11.90
2016,08,08,00,23,11.90
2016,08,08,00,24,11.90
2016,08,08,00,25,11.90
2016,08,08,00,26,11.90
2016,08,08,00,27,11.90
2016,08,08,00,28,11.90
2016,08,08,00,29,11.90
2016,08,08,00,30,11.80
2016,08,08,00,31,11.80
2016,08,08,00,32,11.80
2016,08,08,00,33,11.80
2016,08,08,00,34,11.80
2016,08,08,00,35,11.80
2016,08,08,00,36,11.80
2016,08,08,00,37,11.80
2016,08,08,00,38,11.80
2016,08,08,00,39,11.80
2016,08,08,00,40,11.80
2016,08,08,00,41,11.80
2016,08,08,00,42,11.80
2016,08,08,00,43,11.70
2016,08,08,00,44,11.70
2016,08,08,00,45,11.70
2016,08,08,00,46,11.70
2016,08,08,00,47,11.70
2016,08,08,00,48,11.70
2016,08,08,00,49,11.70
2016,08,08,00,50,11.60
2016,08,08,00,51,11.60
2016,08,08,00,52,11.60
2016,08,08,00,53,11.60
2016,08,08,00,54,11.60
2016,08,08,00,55,11.50
2016,08,08,00,56,11.50
2016,08,08,00,57,11.50
2016,08,08,00,58,11.40
2016,08,08,00,59,11.40
2016,08,08,01,00,11.40
2016,08,08,01,01,11.40
2016,08,08,01,02,11.40
2016,08,08,01,03,11.40
2016,08,08,01,04,11.40
2016,08,08,01,05,11.40
2016,08,08,01,06,11.40
2016,08,08,01,07,11.40
2016,08,08,01,08,11.30
2016,08,08,01,09,11.30
2016,08,08,01,10,11.30
2016,08,08,01,11,11.30
2016,08,08,01,12,11.30
2016,08,08,01,13,11.30
2016,08,08,01,14,11.30
2016,08,08,01,15,11.30
2016,08,08,01,16,11.30
2016,08,08,01,17,11.30
2016,08,08,01,18,11.30
2016,08,08,01,19,11.30
2016,08,08,01,20,11.30
2016,08,08,01,21,11.30
2016,08,08,01,22,11.30
2016,08,08,01,23,11.30
2016,08,08,01,24,11.30
2016,08,08,01,25,11.30
2016,08,08,01,26,11.30
2016,08,08,01,27,11.30
2016,08,08,01,28,11.30
2016,08,08,01,29,11.30
2016,08,08,01,30,11.30
2016,08,08,01,31,11.30
2016,08,08,01,32,11.30
2016,08,08,01,33,11.30
2016,08,08,01,34,11.30
2016,08,08,01,35,11.30
2016,08,08,01,36,11.30
2016,08,08,01,37,11.30
2016,08,08,01,38,11.30
2016,08,08,01,39,11.30
2016,08,08,01,40,11.30
2016,08,08,01,41,11.30
2016,08,08,01,42,11.30
2016,08,08,01,43,11.30
2016,08,08,01,44,11.30
2016,08,08,01,45,11.30
2016,08,08,01,46,11.30
2016,08,08,01,47,11.30
2016,08,08,01,48,11.40
2016,08,08,01,49,11.40
2016,08,08,01,50,11.40
2016,08,08,01,51,11.50
2016,08,08,01,52,11.50
2016,08,08,01,53,11.60
2016,08,08,01,54,11.60
2016,08,08,01,55,11.60
2016,08,08,01,56,11.60
2016,08,08,01,57,11.60
2016,08,08,01,58,11.60
2016,08,08,01,59,11.70
2016,08,08,02,00,11.70
2016,08,08,02,01,11.70
2016,08,08,02,02,11.70
2016,08,08,02,03,11.70
2016,08,08,02,04,11.70
2016,08,08,02,05,11.70
2016,08,08,02,06,11.70
2016,08,08,02,07,11.70
2016,08,08,02,08,11.70
2016,08,08,02,09,11.70
2016,08,08,02,10,11.60
2016,08,08,02,11,11.60
2016,08,08,02,12,11.60
2016,08,08,02,13,11.60
2016,08,08,02,14,11.60
2016,08,08,02,15,11.60
2016,08,08,02,16,11.60
2016,08,08,02,17,11.60
2016,08,08,02,18,11.60
2016,08,08,02,19,11.60
2016,08,08,02,20,11.60
2016,08,08,02,21,11.60
2016,08,08,02,22,11.60
2016,08,08,02,23,11.50
2016,08,08,02,24,11.50
2016,08,08,02,25,11.50
2016,08,08,02,26,11.50
2016,08,08,02,27,11.50
2016,08,08,02,28,11.50
2016,08,08,02,29,11.40
2016,08,08,02,30,11.40
2016,08,08,02,31,11.40
2016,08,08,02,32,11.40
2016,08,08,02,33,11.40
2016,08,08,02,34,11.40
2016,08,08,02,35,11.40
2016,08,08,02,36,11.40
2016,08,08,02,37,11.40
2016,08,08,02,38,11.40
2016,08,08,02,39,11.40
2016,08,08,02,40,11.40
2016,08,08,02,41,11.30
2016,08,08,02,42,11.30
2016,08,08,02,43,11.30
2016,08,08,02,44,11.30
2016,08,08,02,45,11.30
2016,08,08,02,46,11.30
2016,08,08,02,47,11.30
2016,08,08,02,48,11.30
2016,08,08,02,49,11.30
2016,08,08,02,50,11.30
2016,08,08,02,51,11.30
2016,08,08,02,52,11.30
2016,08,08,02,53,11.30
2016,08,08,02,54,11.30
2016,08,08,02,55,11.30
2016,08,08,02,56,11.30
2016,08,08,02,57,11.30
2016,08,08,02,58,11.30
2016,08,08,02,59,11.20
2016,08,08,03,00,11.20
2016,08,08,03,01,11.20
2016,08,08,03,02,11.20
2016,08,08,03,03,11.20
2016,08,08,03,04,11.20
2016,08,08,03,05,11.20
2016,08,08,03,06,11.20
2016,08,08,03,07,11.20
2016,08,08,03,08,11.20
2016,08,08,03,09,11.20
2016,08,08,03,10,11.20
2016,08,08,03,11,11.20
2016,08,08,03,12,11.20
2016,08,08,03,13,11.20
2016,08,08,03,14,11.20
2016,08,08,03,15,11.20
2016,08,08,03,16,11.20
2016,08,08,03,17,11.30
2016,08,08,03,18,11.30
2016,08,08,03,19,11.30
2016,08,08,03,20,11.30
2016,08,08,03,21,11.30
2016,08,08,03,22,11.30
2016,08,08,03,23,11.30
2016,08,08,03,24,11.30
2016,08,08,03,25,11.30
2016,08,08,03,26,11.30
2016,08,08,03,27,11.30
2016,08,08,03,28,11.30
2016,08,08,03,29,11.30
2016,08,08,03,30,11.30
2016,08,08,03,31,11.30
2016,08,08,03,32,11.30
2016,08,08,03,33,11.30
2016,08,08,03,34,11.30
2016,08,08,03,35,11.30
2016,08,08,03,36,11.30
2016,08,08,03,37,11.30
2016,08,08,03,38,11.30
2016,08,08,03,39,11.30
2016,08,08,03,40,11.20
2016,08,08,03,41,11.20
2016,08,08,03,42,11.20
2016,08,08,03,43,11.20
2016,08,08,03,44,11.20
2016,08,08,03,45,11.20
2016,08,08,03,46,11.20
2016,08,08,03,47,11.20
2016,08,08,03,48,11.20
2016,08,08,03,49,11.10
2016,08,08,03,50,11.10
2016,08,08,03,51,11.10
2016,08,08,03,52,11.10
2016,08,08,03,53,11.10
2016,08,08,03,54,11.10
2016,08,08,03,55,11.10
2016,08,08,03,56,11.10
2016,08,08,03,57,11.10
2016,08,08,03,58,11.00
2016,08,08,03,59,11.10
2016,08,08,04,00,11.00
2016,08,08,04,01,11.10
2016,08,08,04,02,11.10
2016,08,08,04,03,11.10
2016,08,08,04,04,11.00
2016,08,08,04,05,11.00
2016,08,08,04,06,11.00
2016,08,08,04,07,11.00
2016,08,08,04,08,11.00
2016,08,08,04,09,11.00
2016,08,08,04,10,11.00
2016,08,08,04,11,11.00
2016,08,08,04,12,11.00
2016,08,08,04,13,11.00
2016,08,08,04,14,11.00
2016,08,08,04,15,11.00
2016,08,08,04,16,11.10
2016,08,08,04,17,11.10
2016,08,08,04,18,11.10
2016,08,08,04,19,11.10
2016,08,08,04,20,11.10
2016,08,08,04,21,11.10
2016,08,08,04,22,11.10
2016,08,08,04,23,11.10
2016,08,08,04,24,11.10
2016,08,08,04,25,11.10
2016,08,08,04,26,11.10
2016,08,08,04,27,11.10
2016,08,08,04,28,11.10
2016,08,08,04,29,11.10
2016,08,08,04,30,11.20
2016,08,08,04,31,11.20
2016,08,08,04,32,11.20
2016,08,08,04,33,11.20
2016,08,08,04,34,11.20
2016,08,08,04,35,11.20
2016,08,08,04,36,11.20
2016,08,08,04,37,11.20
2016,08,08,04,38,11.20
2016,08,08,04,39,11.20
2016,08,08,04,40,11.20
2016,08,08,04,41,11.20
2016,08,08,04,42,11.20
2016,08,08,04,43,11.20
2016,08,08,04,44,11.20
2016,08,08,04,45,11.20
2016,08,08,04,46,11.20
2016,08,08,04,47,11.20
2016,08,08,04,48,11.20
2016,08,08,04,49,11.20
2016,08,08,04,50,11.20
2016,08,08,04,51,11.20
2016,08,08,04,52,11.20
2016,08,08,04,53,11.20
2016,08,08,04,54,11.20
2016,08,08,04,55,11.20
2016,08,08,04,56,11.20
2016,08,08,04,57,11.20
2016,08,08,04,58,11.20
2016,08,08,04,59,11.20
2016,08,08,05,00,11.20
2016,08,08,05,01,11.20
2016,08,08,05,02,11.20
2016,08,08,05,03,11.20
2016,08,08,05,04,11.10
2016,08,08,05,05,11.10
2016,08,08,05,06,11.10
2016,08,08,05,07,11.10
2016,08,08,05,08,11.10
2016,08,08,05,09,11.10
2016,08,08,05,10,11.10
2016,08,08,05,11,11.10
2016,08,08,05,12,11.10
2016,08,08,05,13,11.10
2016,08,08,05,14,11.10
2016,08,08,05,15,11.10
2016,08,08,05,16,11.10
2016,08,08,05,17,11.10
2016,08,08,05,18,11.10
2016,08,08,05,19,11.10
2016,08,08,05,20,11.20
2016,08,08,05,21,11.20
2016,08,08,05,22,11.20
2016,08,08,05,23,11.20
2016,08,08,05,24,11.20
2016,08,08,05,25,11.20
2016,08,08,05,26,11.20
2016,08,08,05,27,11.20
2016,08,08,05,28,11.20
2016,08,08,05,29,11.20
2016,08,08,05,30,11.20
2016,08,08,05,31,11.10
2016,08,08,05,32,11.10
2016,08,08,05,33,11.10
2016,08,08,05,34,11.10
2016,08,08,05,35,11.10
2016,08,08,05,36,11.10
2016,08,08,05,37,11.10
2016,08,08,05,38,11.00
2016,08,08,05,39,11.00
2016,08,08,05,40,11.00
2016,08,08,05,41,11.00
2016,08,08,05,42,10.90
2016,08,08,05,43,10.90
2016,08,08,05,44,10.90
2016,08,08,05,45,10.90
2016,08,08,05,46,10.90
2016,08,08,05,47,10.90
2016,08,08,05,48,10.90
2016,08,08,05,49,10.90
2016,08,08,05,50,10.90
2016,08,08,05,51,10.90
2016,08,08,05,52,10.90
2016,08,08,05,53,10.80
2016,08,08,05,54,10.80
2016,08,08,05,55,10.80
2016,08,08,05,56,10.80
2016,08,08,05,57,10.80
2016,08,08,05,58,10.80
2016,08,08,05,59,10.80
2016,08,08,06,00,10.80
2016,08,08,06,01,10.80
2016,08,08,06,02,10.80
2016,08,08,06,03,10.70
2016,08,08,06,04,10.70
2016,08,08,06,05,10.70
2016,08,08,06,06,10.70
2016,08,08,06,07,10.70
2016,08,08,06,08,10.70
2016,08,08,06,09,10.60
2016,08,08,06,10,10.60
2016,08,08,06,11,10.60
2016,08,08,06,12,10.60
2016,08,08,06,13,10.60
2016,08,08,06,14,10.60
2016,08,08,06,15,10.60
2016,08,08,06,16,10.50
2016,08,08,06,17,10.50
2016,08,08,06,18,10.50
2016,08,08,06,19,10.50
2016,08,08,06,20,10.50
2016,08,08,06,21,10.50
2016,08,08,06,22,10.50
2016,08,08,06,23,10.40
2016,08,08,06,24,10.40
2016,08,08,06,25,10.50
2016,08,08,06,26,10.50
2016,08,08,06,27,10.40
2016,08,08,06,28,10.40
2016,08,08,06,29,10.40
2016,08,08,06,30,10.40
2016,08,08,06,31,10.40
2016,08,08,06,32,10.40
2016,08,08,06,33,10.40
2016,08,08,06,34,10.40
2016,08,08,06,35,10.40
2016,08,08,06,36,10.40
2016,08,08,06,37,10.40
2016,08,08,06,38,10.40
2016,08,08,06,39,10.40
2016,08,08,06,40,10.40
2016,08,08,06,41,10.40
2016,08,08,06,42,10.40
2016,08,08,06,43,10.50
2016,08,08,06,44,10.50
2016,08,08,06,45,10.60
2016,08,08,06,46,10.60
2016,08,08,06,47,10.60
2016,08,08,06,48,10.70
2016,08,08,06,49,10.70
2016,08,08,06,50,10.80
2016,08,08,06,51,10.90
2016,08,08,06,52,10.90
2016,08,08,06,53,11.00
2016,08,08,06,54,11.10
2016,08,08,06,55,11.20
2016,08,08,06,56,11.20
2016,08,08,06,57,11.30
2016,08,08,06,58,11.30
2016,08,08,06,59,11.40
2016,08,08,07,00,11.50
2016,08,08,07,01,11.60
2016,08,08,07,02,11.70
2016,08,08,07,03,11.80
2016,08,08,07,04,11.80
2016,08,08,07,05,11.90
2016,08,08,07,06,12.00
2016,08,08,07,07,12.00
2016,08,08,07,08,12.10
2016,08,08,07,09,12.10
2016,08,08,07,10,12.20
2016,08,08,07,11,12.20
2016,08,08,07,12,12.30
2016,08,08,07,13,12.30
2016,08,08,07,14,12.40
2016,08,08,07,15,12.40
2016,08,08,07,16,12.40
2016,08,08,07,17,12.50
2016,08,08,07,18,12.50
2016,08,08,07,19,12.50
2016,08,08,07,20,12.60
2016,08,08,07,21,12.60
2016,08,08,07,22,12.60
2016,08,08,07,23,12.70
2016,08,08,07,24,12.70
2016,08,08,07,25,12.70
2016,08,08,07,26,12.70
2016,08,08,07,27,12.70
2016,08,08,07,28,12.70
2016,08,08,07,29,12.70
2016,08,08,07,30,12.70
2016,08,08,07,31,12.70
2016,08,08,07,32,12.70
2016,08,08,07,33,12.70
2016,08,08,07,34,12.70
2016,08,08,07,35,12.70
2016,08,08,07,36,12.70
2016,08,08,07,37,12.70
2016,08,08,07,38,12.70
2016,08,08,07,39,12.70
2016,08,08,07,40,12.70
2016,08,08,07,41,12.70
2016,08,08,07,42,12.70
2016,08,08,07,43,12.70
2016,08,08,07,44,12.70
2016,08,08,07,45,12.70
2016,08,08,07,46,12.70
2016,08,08,07,47,12.80
2016,08,08,07,48,12.80
2016,08,08,07,49,12.80
2016,08,08,07,50,12.80
2016,08,08,07,51,12.80
2016,08,08,07,52,12.80
2016,08,08,07,53,12.80
2016,08,08,07,54,12.90
2016,08,08,07,55,12.90
2016,08,08,07,56,12.90
2016,08,08,07,57,13.00
2016,08,08,07,58,13.00
2016,08,08,07,59,13.00
2016,08,08,08,00,13.10
2016,08,08,08,01,13.10
2016,08,08,08,02,13.10
2016,08,08,08,03,13.20
2016,08,08,08,04,13.20
2016,08,08,08,05,13.20
2016,08,08,08,06,13.30
2016,08,08,08,07,13.30
2016,08,08,08,08,13.40
2016,08,08,08,09,13.50
2016,08,08,08,10,13.60
2016,08,08,08,11,13.60
2016,08,08,08,12,13.70
2016,08,08,08,13,13.80
2016,08,08,08,14,13.80
2016,08,08,08,15,13.90
2016,08,08,08,16,14.00
2016,08,08,08,17,14.10
2016,08,08,08,18,14.10
2016,08,08,08,19,14.20
2016,08,08,08,20,14.30
2016,08,08,08,21,14.40
2016,08,08,08,22,14.40
2016,08,08,08,23,14.50
2016,08,08,08,24,14.60
2016,08,08,08,25,14.70
2016,08,08,08,26,14.80
2016,08,08,08,27,14.90
2016,08,08,08,28,14.90
2016,08,08,08,29,15.00
2016,08,08,08,30,15.10
2016,08,08,08,31,15.20
2016,08,08,08,32,15.20
2016,08,08,08,33,15.30
2016,08,08,08,34,15.30
2016,08,08,08,35,15.40
2016,08,08,08,36,15.50
2016,08,08,08,37,15.60
2016,08,08,08,38,15.70
2016,08,08,08,39,15.70
2016,08,08,08,40,15.90
2016,08,08,08,41,16.00
2016,08,08,08,42,16.10
2016,08,08,08,43,16.20
2016,08,08,08,44,16.30
2016,08,08,08,45,16.40
2016,08,08,08,46,16.50
2016,08,08,08,47,16.60
2016,08,08,08,48,16.60
2016,08,08,08,49,16.70
2016,08,08,08,50,16.70
2016,08,08,08,51,16.70
2016,08,08,08,52,16.70
2016,08,08,08,53,16.80
2016,08,08,08,54,16.80
2016,08,08,08,55,16.80
2016,08,08,08,56,16.80
2016,08,08,08,57,16.80
2016,08,08,08,58,16.80
2016,08,08,08,59,16.90
2016,08,08,09,00,16.90
2016,08,08,09,01,17.00
2016,08,08,09,02,17.00
2016,08,08,09,03,17.10
2016,08,08,09,04,17.20
2016,08,08,09,05,17.30
2016,08,08,09,06,17.30
2016,08,08,09,07,17.40
2016,08,08,09,08,17.50
2016,08,08,09,09,17.50
2016,08,08,09,10,17.60
2016,08,08,09,11,17.60
2016,08,08,09,12,17.70
2016,08,08,09,13,17.70
2016,08,08,09,14,17.80
2016,08,08,09,15,17.80
2016,08,08,09,16,17.90
2016,08,08,09,17,17.90
2016,08,08,09,18,18.00
2016,08,08,09,19,18.00
2016,08,08,09,20,18.00
2016,08,08,09,21,18.00
2016,08,08,09,22,18.00
2016,08,08,09,23,18.10
2016,08,08,09,24,18.10
2016,08,08,09,25,18.20
2016,08,08,09,26,18.20
2016,08,08,09,27,18.30
2016,08,08,09,28,18.40
2016,08,08,09,29,18.40
2016,08,08,09,30,18.50
2016,08,08,09,31,18.60
2016,08,08,09,32,18.70
2016,08,08,09,33,18.80
2016,08,08,09,34,18.80
2016,08,08,09,35,18.80
2016,08,08,09,36,18.80
2016,08,08,09,37,18.80
2016,08,08,09,38,18.80
2016,08,08,09,39,18.80
2016,08,08,09,40,18.80
2016,08,08,09,41,18.80
2016,08,08,09,42,18.80
2016,08,08,09,43,18.80
2016,08,08,09,44,18.90
2016,08,08,09,45,18.90
2016,08,08,09,46,18.90
2016,08,08,09,47,18.90
2016,08,08,09,48,19.00
2016,08,08,09,49,19.00
2016,08,08,09,50,19.10
2016,08,08,09,51,19.10
2016,08,08,09,52,19.10
2016,08,08,09,53,19.10
2016,08,08,09,54,19.20
2016,08,08,09,55,19.20
2016,08,08,09,56,19.20
2016,08,08,09,57,19.20
2016,08,08,09,58,19.20
2016,08,08,09,59,19.20
2016,08,08,10,00,19.20
2016,08,08,10,01,19.20
2016,08,08,10,02,19.20
2016,08,08,10,03,19.20
2016,08,08,10,04,19.20
2016,08,08,10,05,19.20
2016,08,08,10,06,19.20
2016,08,08,10,07,19.20
2016,08,08,10,08,19.20
2016,08,08,10,09,19.20
2016,08,08,10,10,19.30
2016,08,08,10,11,19.30
2016,08,08,10,12,19.40
2016,08,08,10,13,19.50
2016,08,08,10,14,19.50
2016,08,08,10,15,19.60
2016,08,08,10,16,19.60
2016,08,08,10,17,19.60
2016,08,08,10,18,19.60
2016,08,08,10,19,19.70
2016,08,08,10,20,19.60
2016,08,08,10,21,19.60
2016,08,08,10,22,19.60
2016,08,08,10,23,19.70
2016,08,08,10,24,19.70
2016,08,08,10,25,19.80
2016,08,08,10,26,19.80
2016,08,08,10,27,19.80
2016,08,08,10,28,19.90
2016,08,08,10,29,19.90
2016,08,08,10,30,19.90
2016,08,08,10,31,20.00
2016,08,08,10,32,20.00
2016,08,08,10,33,20.10
2016,08,08,10,34,20.10
2016,08,08,10,35,20.10
2016,08,08,10,36,20.10
2016,08,08,10,37,20.20
2016,08,08,10,38,20.20
2016,08,08,10,39,20.20
2016,08,08,10,40,20.30
2016,08,08,10,41,20.30
2016,08,08,10,42,20.30
2016,08,08,10,43,20.30
2016,08,08,10,44,20.30
2016,08,08,10,45,20.30
2016,08,08,10,46,20.30
2016,08,08,10,47,20.20
2016,08,08,10,48,20.20
2016,08,08,10,49,20.20
2016,08,08,10,50,20.20
2016,08,08,10,51,20.20
2016,08,08,10,52,20.30
2016,08,08,10,53,20.30
2016,08,08,10,54,20.30
2016,08,08,10,55,20.30
2016,08,08,10,56,20.30
2016,08,08,10,57,20.30
2016,08,08,10,58,20.30
2016,08,08,10,59,20.20
2016,08,08,11,00,20.10
2016,08,08,11,01,20.10
2016,08,08,11,02,20.00
2016,08,08,11,03,20.00
2016,08,08,11,04,19.90
2016,08,08,11,05,19.80
2016,08,08,11,06,19.80
2016,08,08,11,07,19.80
2016,08,08,11,08,19.80
2016,08,08,11,09,19.80
2016,08,08,11,10,19.80
2016,08,08,11,11,19.80
2016,08,08,11,12,19.80
2016,08,08,11,13,19.80
2016,08,08,11,14,19.90
2016,08,08,11,15,19.90
2016,08,08,11,16,19.90
2016,08,08,11,17,19.90
2016,08,08,11,18,20.00
2016,08,08,11,19,20.00
2016,08,08,11,20,20.10
2016,08,08,11,21,20.20
2016,08,08,11,22,20.20
2016,08,08,11,23,20.30
2016,08,08,11,24,20.30
2016,08,08,11,25,20.40
2016,08,08,11,26,20.50
2016,08,08,11,27,20.60
2016,08,08,11,28,20.70
2016,08,08,11,29,20.80
2016,08,08,11,30,20.90
2016,08,08,11,31,21.00
2016,08,08,11,32,21.10
2016,08,08,11,33,21.10
2016,08,08,11,34,21.00
2016,08,08,11,35,20.90
2016,08,08,11,36,20.90
2016,08,08,11,37,20.90
2016,08,08,11,38,20.80
2016,08,08,11,39,20.90
2016,08,08,11,40,20.90
2016,08,08,11,41,20.90
2016,08,08,11,42,21.00
2016,08,08,11,43,21.00
2016,08,08,11,44,21.10
2016,08,08,11,45,21.20
2016,08,08,11,46,21.20
2016,08,08,11,47,21.20
2016,08,08,11,48,21.20
2016,08,08,11,49,21.30
2016,08,08,11,50,21.40
2016,08,08,11,51,21.40
2016,08,08,11,52,21.50
2016,08,08,11,53,21.60
2016,08,08,11,54,21.60
2016,08,08,11,55,21.60
2016,08,08,11,56,21.60
2016,08,08,11,57,21.60
2016,08,08,11,58,21.60
2016,08,08,11,59,21.70
2016,08,08,12,00,21.80
2016,08,08,12,01,21.80
2016,08,08,12,02,21.80
2016,08,08,12,03,21.90
2016,08,08,12,04,21.90
2016,08,08,12,05,22.00
2016,08,08,12,06,22.10
2016,08,08,12,07,22.10
2016,08,08,12,08,22.00
2016,08,08,12,09,21.90
2016,08,08,12,10,21.90
2016,08,08,12,11,21.80
2016,08,08,12,12,21.80
2016,08,08,12,13,21.80
2016,08,08,12,14,21.90
2016,08,08,12,15,21.90
2016,08,08,12,16,21.90
2016,08,08,12,17,22.00
2016,08,08,12,18,22.00
2016,08,08,12,19,22.00
2016,08,08,12,20,22.00
2016,08,08,12,21,22.00
2016,08,08,12,22,22.00
2016,08,08,12,23,22.00
2016,08,08,12,24,22.00
2016,08,08,12,25,22.10
2016,08,08,12,26,22.10
2016,08,08,12,27,22.20
2016,08,08,12,28,22.20
2016,08,08,12,29,22.20
2016,08,08,12,30,22.20
2016,08,08,12,31,22.20
2016,08,08,12,32,22.10
2016,08,08,12,33,22.10
2016,08,08,12,34,22.10
2016,08,08,12,35,22.10
2016,08,08,12,36,22.10
2016,08,08,12,37,22.10
2016,08,08,12,38,22.20
2016,08,08,12,39,22.30
2016,08,08,12,40,22.40
2016,08,08,12,41,22.40
2016,08,08,12,42,22.40
2016,08,08,12,43,22.40
2016,08,08,12,44,22.50
2016,08,08,12,45,22.50
2016,08,08,12,46,22.60
2016,08,08,12,47,22.50
2016,08,08,12,48,22.50
2016,08,08,12,49,22.50
2016,08,08,12,50,22.40
2016,08,08,12,51,22.50
2016,08,08,12,52,22.60
2016,08,08,12,53,22.70
2016,08,08,12,54,22.80
2016,08,08,12,55,22.80
2016,08,08,12,56,22.70
2016,08,08,12,57,22.40
2016,08,08,12,58,22.30
2016,08,08,12,59,22.10
2016,08,08,13,00,21.90
2016,08,08,13,01,21.80
2016,08,08,13,02,21.80
2016,08,08,13,03,21.80
2016,08,08,13,04,21.80
2016,08,08,13,05,21.90
2016,08,08,13,06,22.00
2016,08,08,13,07,22.10
2016,08,08,13,08,22.10
2016,08,08,13,09,22.10
2016,08,08,13,10,22.10
2016,08,08,13,11,22.10
2016,08,08,13,12,22.10
2016,08,08,13,13,22.10
2016,08,08,13,14,22.10
2016,08,08,13,15,22.10
2016,08,08,13,16,22.10
2016,08,08,13,17,22.10
2016,08,08,13,18,22.10
2016,08,08,13,19,22.20
2016,08,08,13,20,22.20
2016,08,08,13,21,22.20
2016,08,08,13,22,22.20
2016,08,08,13,23,22.20
2016,08,08,13,24,22.20
2016,08,08,13,25,22.10
2016,08,08,13,26,22.20
2016,08,08,13,27,22.10
2016,08,08,13,28,22.10
2016,08,08,13,29,22.00
2016,08,08,13,30,21.90
2016,08,08,13,31,21.70
2016,08,08,13,32,21.60
2016,08,08,13,33,21.40
2016,08,08,13,34,21.30
2016,08,08,13,35,21.30
2016,08,08,13,36,21.30
2016,08,08,13,37,21.30
2016,08,08,13,38,21.40
2016,08,08,13,39,21.60
2016,08,08,13,40,21.70
2016,08,08,13,41,21.80
2016,08,08,13,42,21.80
2016,08,08,13,43,21.90
2016,08,08,13,44,22.00
2016,08,08,13,45,22.00
2016,08,08,13,46,22.10
2016,08,08,13,47,22.20
2016,08,08,13,48,22.30
2016,08,08,13,49,22.30
2016,08,08,13,50,22.30
2016,08,08,13,51,22.40
2016,08,08,13,52,22.40
2016,08,08,13,53,22.40
2016,08,08,13,54,22.40
2016,08,08,13,55,22.20
2016,08,08,13,56,22.10
2016,08,08,13,57,22.00
2016,08,08,13,58,21.90
2016,08,08,13,59,21.80
2016,08,08,14,00,21.70
2016,08,08,14,01,21.70
2016,08,08,14,02,21.70
2016,08,08,14,03,21.70
2016,08,08,14,04,21.70
2016,08,08,14,05,21.60
2016,08,08,14,06,21.60
2016,08,08,14,07,21.60
2016,08,08,14,08,21.70
2016,08,08,14,09,21.70
2016,08,08,14,10,21.80
2016,08,08,14,11,21.90
2016,08,08,14,12,21.90
2016,08,08,14,13,22.00
2016,08,08,14,14,22.10
2016,08,08,14,15,22.10
2016,08,08,14,16,22.10
2016,08,08,14,17,22.10
2016,08,08,14,18,22.10
2016,08,08,14,19,22.00
2016,08,08,14,20,21.90
2016,08,08,14,21,21.90
2016,08,08,14,22,22.00
2016,08,08,14,23,22.00
2016,08,08,14,24,22.10
2016,08,08,14,25,22.20
2016,08,08,14,26,22.20
2016,08,08,14,27,22.20
2016,08,08,14,28,22.20
2016,08,08,14,29,22.20
2016,08,08,14,30,22.20
2016,08,08,14,31,22.10
2016,08,08,14,32,21.90
2016,08,08,14,33,21.80
2016,08,08,14,34,21.60
2016,08,08,14,35,21.50
2016,08,08,14,36,21.30
2016,08,08,14,37,21.30
2016,08,08,14,38,21.20
2016,08,08,14,39,21.10
2016,08,08,14,40,21.10
2016,08,08,14,41,21.10
2016,08,08,14,42,21.10
2016,08,08,14,43,21.10
2016,08,08,14,44,21.10
2016,08,08,14,45,21.20
2016,08,08,14,46,21.20
2016,08,08,14,47,21.10
2016,08,08,14,48,21.10
2016,08,08,14,49,21.10
2016,08,08,14,50,21.00
2016,08,08,14,51,21.00
2016,08,08,14,52,21.00
2016,08,08,14,53,21.00
2016,08,08,14,54,20.90
2016,08,08,14,55,20.90
2016,08,08,14,56,20.80
2016,08,08,14,57,20.80
2016,08,08,14,58,20.70
2016,08,08,14,59,20.70
2016,08,08,15,00,20.70
2016,08,08,15,01,20.70
2016,08,08,15,02,20.70
2016,08,08,15,03,20.80
2016,08,08,15,04,20.90
2016,08,08,15,05,21.00
2016,08,08,15,06,21.10
2016,08,08,15,07,21.30
2016,08,08,15,08,21.40
2016,08,08,15,09,21.50
2016,08,08,15,10,21.60
2016,08,08,15,11,21.70
2016,08,08,15,12,21.70
2016,08,08,15,13,21.70
2016,08,08,15,14,21.60
2016,08,08,15,15,21.60
2016,08,08,15,16,21.60
2016,08,08,15,17,21.60
2016,08,08,15,18,21.70
2016,08,08,15,19,21.80
2016,08,08,15,20,21.90
2016,08,08,15,21,22.00
2016,08,08,15,22,22.10
2016,08,08,15,23,22.20
2016,08,08,15,24,22.20
2016,08,08,15,25,22.20
2016,08,08,15,26,22.20
2016,08,08,15,27,22.20
2016,08,08,15,28,22.20
2016,08,08,15,29,22.30
2016,08,08,15,30,22.30
2016,08,08,15,31,22.40
2016,08,08,15,32,22.50
2016,08,08,15,33,22.60
2016,08,08,15,34,22.60
2016,08,08,15,35,22.60
2016,08,08,15,36,22.70
2016,08,08,15,37,22.70
2016,08,08,15,38,22.80
2016,08,08,15,39,22.80
2016,08,08,15,40,22.80
2016,08,08,15,41,22.80
2016,08,08,15,42,22.70
2016,08,08,15,43,22.70
2016,08,08,15,44,22.70
2016,08,08,15,45,22.70
2016,08,08,15,46,22.70
2016,08,08,15,47,22.80
2016,08,08,15,48,22.80
2016,08,08,15,49,22.90
2016,08,08,15,50,23.00
2016,08,08,15,51,23.10
2016,08,08,15,52,23.20
2016,08,08,15,53,23.30
2016,08,08,15,54,23.50
2016,08,08,15,55,23.60
2016,08,08,15,56,23.70
2016,08,08,15,57,23.80
2016,08,08,15,58,23.80
2016,08,08,15,59,23.90
2016,08,08,16,00,23.80
2016,08,08,16,01,23.80
2016,08,08,16,02,23.70
2016,08,08,16,03,23.70
2016,08,08,16,04,23.60
2016,08,08,16,05,23.60
2016,08,08,16,06,23.60
2016,08,08,16,07,23.60
2016,08,08,16,08,23.60
2016,08,08,16,09,23.60
2016,08,08,16,10,23.60
2016,08,08,16,11,23.60
2016,08,08,16,12,23.60
2016,08,08,16,13,23.60
2016,08,08,16,14,23.60
2016,08,08,16,15,23.60
2016,08,08,16,16,23.50
2016,08,08,16,17,23.40
2016,08,08,16,18,23.30
2016,08,08,16,19,23.20
2016,08,08,16,20,23.10
2016,08,08,16,21,23.10
2016,08,08,16,22,23.10
2016,08,08,16,23,23.20
2016,08,08,16,24,23.20
2016,08,08,16,25,23.20
2016,08,08,16,26,23.20
2016,08,08,16,27,23.30
2016,08,08,16,28,23.30
2016,08,08,16,29,23.40
2016,08,08,16,30,23.40
2016,08,08,16,31,23.40
2016,08,08,16,32,23.50
2016,08,08,16,33,23.50
2016,08,08,16,34,23.60
2016,08,08,16,35,23.60
2016,08,08,16,36,23.70
2016,08,08,16,37,23.70
2016,08,08,16,38,23.60
2016,08,08,16,39,23.60
2016,08,08,16,40,23.60
2016,08,08,16,41,23.50
2016,08,08,16,42,23.40
2016,08,08,16,43,23.30
2016,08,08,16,44,23.20
2016,08,08,16,45,23.00
2016,08,08,16,46,22.90
2016,08,08,16,47,22.80
2016,08,08,16,48,22.70
2016,08,08,16,49,22.70
2016,08,08,16,50,22.70
2016,08,08,16,51,22.70
2016,08,08,16,52,22.70
2016,08,08,16,53,22.80
2016,08,08,16,54,22.80
2016,08,08,16,55,22.90
2016,08,08,16,56,22.90
2016,08,08,16,57,22.90
2016,08,08,16,58,22.90
2016,08,08,16,59,22.90
2016,08,08,17,00,22.80
2016,08,08,17,01,22.70
2016,08,08,17,02,22.70
2016,08,08,17,03,22.60
2016,08,08,17,04,22.50
2016,08,08,17,05,22.40
2016,08,08,17,06,22.30
2016,08,08,17,07,22.30
2016,08,08,17,08,22.20
2016,08,08,17,09,22.10
2016,08,08,17,10,22.10
2016,08,08,17,11,22.20
2016,08,08,17,12,22.20
2016,08,08,17,13,22.20
2016,08,08,17,14,22.20
2016,08,08,17,15,22.20
2016,08,08,17,16,22.10
2016,08,08,17,17,22.10
2016,08,08,17,18,22.00
2016,08,08,17,19,21.90